Regional Weather Roundup
Issued by NWS

Home | Current Version | Previous Version | Text Only | Print | Product List | Glossary On
Versions: 1 2 3 4 5 6 7 8 9 10 11 12 13 14 15 16 17 18 19 20 21 22 23 24 25 26 27 28 29 30 31 32 33 34 35 36 37 38 39 40 41 42 43 44 45 46 47 48 49 50
000
ASUS45 KBOU 291107
RWRCO

WEATHER ROUNDUP FOR COLORADO
NATIONAL WEATHER SERVICE DENVER/BOULDER CO
500 AM MDT TUE JUL 29 2014

NOTE: "FAIR" INDICATES FEW OR NO CLOUDS BELOW 12000 FEET WITH NO
SIGNIFICANT WEATHER AND/OR OBSTRUCTIONS TO VISIBILITY.

COZ001>005-013-030-031-291200-
...NORTHWEST COLORADO...

CITY           SKY/WX    TMP DP  RH WIND       PRES   REMARKS
CRAIG          CLOUDY    53  53 100 CALM      30.33R
HAYDEN         CLOUDY    61  46  59 SW6       30.35R
MEEKER         CLOUDY    61  53  75 SE5       30.35S
MOUNT WERNER   NOT AVBL
STEAMBOAT SPGS CLOUDY    59  50  70 CALM      30.36S
WALDEN         MOCLDY    50  43  76 SE5       30.43S
$$

COZ006>008-011-291200-
...WEST CENTRAL VALLEYS...

CITY           SKY/WX    TMP DP  RH WIND       PRES   REMARKS
GRAND JUNCTION CLOUDY    62  60  93 SE8       30.26F
MONTROSE       CLOUDY    62  59  90 SE5       30.37S
EAGLE          MOCLDY    57  54  88 CALM      30.39R
RIFLE          LGT RAIN  62  59  90 W9        30.31F
DELTA          CLOUDY    64  61  87 E3        30.32S
NUCLA          CLOUDY    59  57  94 SE10      30.39F
$$

COZ017>023-064>068-291200-
...SOUTHWEST COLORADO...

CITY           SKY/WX    TMP DP  RH WIND       PRES   REMARKS
DURANGO        CLOUDY    59  55  87 CALM      30.37S
CORTEZ         MOCLDY    61  61 100 CALM      30.32F
PAGOSA SPRINGS CLOUDY    59  54  83 CALM      30.44S
TELLURIDE      LGT RAIN  52  52 100 CALM      30.53S
WOLF CREEK PAS NOT AVBL
$$

COZ009-010-012-014-032>034-037-058>063-291200-
...CENTRAL COLORADO...

CITY           SKY/WX    TMP DP  RH WIND       PRES   REMARKS
ASPEN          MOCLDY    53  50  89 S3        30.42S
BUENA VISTA    MOCLDY    53  51  94 W6        30.44S
COPPER MTN     CLOUDY    46  37  71 W14       30.69S
BERTHOUD PASS  MOCLDY    41  28  60 SE8       30.74S
COTTONWOOD PAS MOCLDY    54  46  76 CALM      30.55S
GUNNISON       MOCLDY    55  50  82 CALM      30.47S
KREMMLING      MOCLDY    54  46  76 SE3       30.41S
LEADVILLE      MOCLDY    45  44  97 NE6       30.54F
MONARCH PASS   FOG       43  41  93 W16       30.77S VSB<1/4
SALIDA         MOCLDY    55  51  86 W3        30.48S
SUNLIGHT       CLOUDY    50  48  93 CALM      30.62S FOG
WILKERSON PASS PTCLDY    48  37  66 S5        30.67S
$$

COZ069>075-291200-
...SAN LUIS VALLEY/SANGRE DE CRISTO MOUNTAINS...

CITY           SKY/WX    TMP DP  RH WIND       PRES   REMARKS
ALAMOSA        PTCLDY    51  50  96 S3        30.42F
LA VETA PASS   FOG       46  46 100 SW10G20   30.54F VSB 3/4
SAGUACHE       PTCLDY    52  50  93 W7        30.45S
$$

COZ035-036-038>040-291200-
...NORTHERN COLORADO FRONT RANGE...

CITY           SKY/WX    TMP DP  RH WIND       PRES   REMARKS
DENVER INTL AP MOCLDY    62  56  80 W6        30.24S
DMNS CITY PARK   N/A     62  53  72 SW2       30.25S
AURORA         PTCLDY    61  56  83 SW6       30.27S
FRONT RANGE AP NOT AVBL
ERIE MUNI ARPT MOCLDY    60  57  89 CALM      30.24R
BOULDER MUN AP MOCLDY    64  57  77 CALM      30.24S
CENTENNIAL     PTCLDY    61  52  72 CALM      30.27S
BROOMFIELD     MOCLDY    63  55  77 NW5       30.27R
FORT COLLINS   MOCLDY    61  55  82 N6        30.24S
LONGMONT       MOCLDY    64  58  80 CALM      30.25R
$$

COZ041-046-047-076>085-087-088-291200-
...PIKES PEAK/PALMER DIVIDE AND SOUTHERN FOOTHILLS...

CITY           SKY/WX    TMP DP  RH WIND       PRES   REMARKS
COLO. SPRINGS  PTCLDY    58  55  90 NE5       30.31F
A. F. ACADEMY  CLEAR     52  51  95 N5        30.32F
ELLICOTT       FOG       59  59 100 E6        30.29S VSB 1/4
FALCON         CLEAR     55  53  95 CALM      30.36S
FORT CARSON    CLEAR     58  54  86 N9        30.28F
LIMON          CLOUDY    57  56  96 CALM      30.27S
MONUMENT HILL  PTCLDY    52  46  82 S7        30.35S
TRINIDAD       PTCLDY    60  57  89 SW7       30.28S
$$

COZ042>045-048>051-090-091-291200-
...NORTHEAST COLORADO...

CITY           SKY/WX    TMP DP  RH WIND       PRES   REMARKS
GREELEY ARPT   NOT AVBL
AKRON          PTCLDY    62  57  83 S8        30.22S
BURLINGTON     CLEAR     60  57  89 S7        30.22S
WRAY             N/A     63  58  83 S6        30.19S
STERLING       PTCLDY    63  61  94 CALM      30.19S
HOLYOKE        CLEAR     59  55  88 E6        30.20S
FORT MORGAN    PTCLDY    60  56  87 NE5       30.22S
$$

COZ086-089-092>099-291200-
...SOUTHEAST COLORADO...

CITY           SKY/WX    TMP DP  RH WIND       PRES   REMARKS
PUEBLO         CLOUDY    64  61  90 N5        30.21S
LA JUNTA       PTCLDY    66  64  93 CALM      30.18F
LAMAR          PTCLDY    67  63  87 SE9       30.17R
SPRINGFIELD      N/A     64  62  93 S16       30.23S
$$



USA.gov is the U.S. government's official web portal to all federal, state and local government web resources and services.